Location: Newark
(49.8969°N, 3.3422°E)
Time: 19:03:45
(UTC+00:00)

Tiros 1 - Pass Details

Date: 13 May 2021
Orbit: 630 x 664 km, 48.4° (Epoch: 12 June)

Event Time Altitude Azimuth Distance (km) Brightness Sun altitude
Exits shadow 23:51:31 19° 110° (ESE) 1,554 8.9 -21.4°
Drops below altitude 10° 23:53:26 10° 91° (E) 2,070 9.8 -21.4°
Sets 23:56:05 0° 78° (ENE) 2,979 10.8 -21.4°
